TimeEST,TemperatureF,Dew PointF,Humidity,Sea Level PressureIn,VisibilityMPH,Wind Direction,Wind SpeedMPH,Gust SpeedMPH,PrecipitationIn,Events,Conditions,WindDirDegrees,DateUTC
12:15 AM,24.8,19.4,80,30.19,10.0,North,6.9,-,N/A,,Clear,10,2012-11-07 05:15:00
12:35 AM,24.8,19.4,80,30.21,10.0,North,5.8,-,N/A,,Clear,360,2012-11-07 05:35:00
12:55 AM,24.8,21.2,86,30.21,10.0,North,5.8,-,N/A,,Clear,10,2012-11-07 05:55:00
1:15 AM,24.8,17.6,74,30.22,10.0,North,3.5,-,N/A,,Clear,360,2012-11-07 06:15:00
1:35 AM,26.6,21.2,80,30.20,10.0,North,8.1,-,N/A,,Clear,360,2012-11-07 06:35:00
1:55 AM,26.6,15.8,64,30.20,10.0,North,8.1,-,N/A,,Clear,360,2012-11-07 06:55:00
2:15 AM,26.6,15.8,64,30.20,10.0,North,8.1,-,N/A,,Clear,360,2012-11-07 07:15:00
2:35 AM,26.6,17.6,69,30.20,10.0,North,8.1,-,N/A,,Clear,360,2012-11-07 07:35:00
2:55 AM,26.6,12.2,55,30.20,10.0,North,8.1,-,N/A,,Clear,360,2012-11-07 07:55:00
3:15 AM,26.6,19.4,74,30.19,10.0,North,8.1,-,N/A,,Clear,360,2012-11-07 08:15:00
3:55 AM,28.4,17.6,64,30.21,10.0,North,8.1,-,N/A,,Mostly Cloudy,10,2012-11-07 08:55:00
4:15 AM,28.4,19.4,69,30.19,10.0,North,12.7,17.3,N/A,,Overcast,10,2012-11-07 09:15:00
4:35 AM,30.2,12.2,47,30.19,10.0,NNE,12.7,20.7,N/A,,Overcast,20,2012-11-07 09:35:00
4:55 AM,28.4,15.8,59,30.18,10.0,NNE,13.8,-,N/A,,Mostly Cloudy,20,2012-11-07 09:55:00
5:15 AM,28.4,15.8,59,30.17,10.0,NNE,16.1,20.7,N/A,,Partly Cloudy,20,2012-11-07 10:15:00
5:35 AM,28.4,12.2,51,30.15,10.0,NNE,18.4,21.9,N/A,,Clear,30,2012-11-07 10:35:00
5:55 AM,28.4,17.6,64,30.17,10.0,NNE,13.8,-,N/A,,Clear,20,2012-11-07 10:55:00
6:15 AM,28.4,15.8,59,30.16,10.0,NNE,13.8,-,N/A,,Clear,20,2012-11-07 11:15:00
6:35 AM,28.4,14.0,55,30.16,10.0,NNE,16.1,-,N/A,,Clear,20,2012-11-07 11:35:00
6:55 AM,28.4,17.6,64,30.17,10.0,NNE,13.8,-,N/A,,Clear,20,2012-11-07 11:55:00
7:15 AM,28.4,14.0,55,30.16,10.0,NNE,15.0,-,N/A,,Clear,20,2012-11-07 12:15:00
7:35 AM,28.4,15.8,59,30.17,10.0,NNE,17.3,20.7,N/A,,Clear,20,2012-11-07 12:35:00
7:55 AM,30.2,19.4,64,30.17,10.0,NNE,16.1,20.7,N/A,,Clear,20,2012-11-07 12:55:00
8:15 AM,30.2,14.0,51,30.14,10.0,NNE,18.4,24.2,N/A,,Clear,20,2012-11-07 13:15:00
8:35 AM,30.2,15.8,55,30.13,10.0,NNE,18.4,26.5,N/A,,Clear,20,2012-11-07 13:35:00
9:15 AM,32.0,12.2,44,30.13,10.0,NNE,18.4,25.3,N/A,,Clear,20,2012-11-07 14:15:00
9:35 AM,32.0,15.8,51,30.13,10.0,NNE,17.3,28.8,N/A,,Clear,30,2012-11-07 14:35:00
9:55 AM,32.0,15.8,51,30.12,10.0,NNE,19.6,-,N/A,,Clear,20,2012-11-07 14:55:00
10:35 AM,33.8,15.8,48,30.10,10.0,NNE,19.6,25.3,N/A,,Clear,30,2012-11-07 15:35:00
10:55 AM,33.8,15.8,48,30.09,10.0,NNE,18.4,21.9,N/A,,Clear,20,2012-11-07 15:55:00
11:15 AM,33.8,12.2,41,30.08,10.0,NNE,19.6,25.3,N/A,,Clear,20,2012-11-07 16:15:00
11:35 AM,33.8,15.8,48,30.08,10.0,NNE,12.7,26.5,N/A,,Clear,20,2012-11-07 16:35:00
11:55 AM,33.8,15.8,48,30.06,10.0,NNE,16.1,21.9,N/A,,Clear,20,2012-11-07 16:55:00
12:15 PM,33.8,12.2,41,30.04,10.0,NNE,19.6,25.3,N/A,,Partly Cloudy,20,2012-11-07 17:15:00
12:35 PM,33.8,14.0,44,30.03,10.0,NNE,17.3,25.3,N/A,,Clear,20,2012-11-07 17:35:00
12:55 PM,33.8,15.8,48,30.03,10.0,NNE,13.8,24.2,N/A,,Clear,20,2012-11-07 17:55:00
1:15 PM,33.8,14.0,44,30.02,10.0,North,16.1,24.2,N/A,,Partly Cloudy,10,2012-11-07 18:15:00
1:35 PM,33.8,10.4,38,30.01,10.0,NNE,15.0,-,N/A,,Partly Cloudy,20,2012-11-07 18:35:00
1:55 PM,33.8,14.0,44,30.00,10.0,North,16.1,21.9,N/A,,Scattered Clouds,10,2012-11-07 18:55:00
2:15 PM,33.8,15.8,48,29.98,10.0,NNE,18.4,23.0,N/A,,Mostly Cloudy,20,2012-11-07 19:15:00
2:35 PM,33.8,12.2,41,29.98,10.0,NNE,15.0,20.7,N/A,,Overcast,20,2012-11-07 19:35:00
2:55 PM,33.8,12.2,41,29.98,10.0,North,13.8,20.7,N/A,,Overcast,10,2012-11-07 19:55:00
3:15 PM,33.8,15.8,48,29.99,10.0,NNE,13.8,21.9,N/A,,Overcast,20,2012-11-07 20:15:00
3:35 PM,33.8,17.6,52,29.97,10.0,North,16.1,-,N/A,,Overcast,10,2012-11-07 20:35:00
3:55 PM,33.8,15.8,48,29.97,10.0,North,13.8,21.9,N/A,,Overcast,10,2012-11-07 20:55:00
4:15 PM,33.8,12.2,41,29.95,10.0,NNE,16.1,-,N/A,,Overcast,20,2012-11-07 21:15:00
4:35 PM,35.6,14.0,41,29.95,10.0,North,16.1,23.0,N/A,,Overcast,10,2012-11-07 21:35:00
4:55 PM,35.6,15.8,44,29.95,10.0,NNE,20.7,29.9,N/A,,Overcast,20,2012-11-07 21:55:00
5:15 PM,35.6,14.0,41,29.95,10.0,NNE,15.0,24.2,N/A,,Overcast,20,2012-11-07 22:15:00
5:35 PM,35.6,10.4,35,29.96,10.0,NNE,18.4,27.6,N/A,,Overcast,30,2012-11-07 22:35:00
5:55 PM,35.6,12.2,38,29.95,10.0,NNE,19.6,26.5,N/A,,Overcast,30,2012-11-07 22:55:00
6:35 PM,35.6,12.2,38,29.94,10.0,NNE,18.4,29.9,N/A,,Overcast,20,2012-11-07 23:35:00
6:55 PM,35.6,10.4,35,29.93,10.0,NNE,20.7,26.5,N/A,,Overcast,30,2012-11-07 23:55:00
7:15 PM,35.6,12.2,38,29.93,10.0,NNE,19.6,26.5,N/A,,Overcast,20,2012-11-08 00:15:00
7:35 PM,35.6,12.2,38,29.93,10.0,NNE,18.4,23.0,N/A,,Overcast,30,2012-11-08 00:35:00
7:55 PM,35.6,12.2,38,29.93,10.0,NE,20.7,28.8,N/A,,Overcast,40,2012-11-08 00:55:00
8:15 PM,35.6,10.4,35,29.93,10.0,NNE,17.3,31.1,N/A,,Overcast,30,2012-11-08 01:15:00
8:35 PM,35.6,12.2,38,29.92,10.0,NNE,18.4,25.3,N/A,,Overcast,30,2012-11-08 01:35:00
9:15 PM,35.6,15.8,44,29.92,10.0,NE,19.6,27.6,N/A,,Overcast,40,2012-11-08 02:15:00
9:35 PM,35.6,12.2,38,29.91,10.0,NNE,15.0,26.5,N/A,,Overcast,30,2012-11-08 02:35:00
9:55 PM,35.6,15.8,44,29.91,9.0,NE,25.3,33.4,N/A,,Overcast,50,2012-11-08 02:55:00
10:15 PM,35.6,19.4,52,29.89,10.0,NE,26.5,40.3,N/A,,Overcast,40,2012-11-08 03:15:00
10:35 PM,33.8,21.2,60,29.88,7.0,NNE,23.0,33.4,N/A,,Overcast,20,2012-11-08 03:35:00
10:55 PM,32.0,19.4,60,29.87,4.0,NNE,20.7,26.5,N/A,,Overcast,20,2012-11-08 03:55:00
11:15 PM,30.2,30.2,100,29.87,1.8,North,17.3,32.2,N/A,,Overcast,10,2012-11-08 04:15:00
11:35 PM,30.2,24.8,80,29.86,1.2,North,19.6,26.5,N/A,,Overcast,360,2012-11-08 04:35:00
11:55 PM,30.2,24.8,80,29.84,1.5,North,21.9,26.5,N/A,,Overcast,360,2012-11-08 04:55:00